This is the latest recevied weather packets stored in our database for station/object KE0TNI-13. If no packets are shown the sender has not sent any weather packets the latest 10 day(s).
| Time | Temp. | Humidity | Pressure | Rain* | Wind** | Luminosity | Snow |
|---|---|---|---|---|---|---|---|
| 1777731788 | 2.78° C | 40% | 1026.2 hPa | 0 mm | - | 27 W/m² | - |
| 1777731485 | 2.78° C | 42% | 1026.1 hPa | 0 mm | - | 27 W/m² | - |
| 1777731183 | 2.22° C | 43% | 1026.2 hPa | 0 mm | - | 27 W/m² | - |
| 1777730880 | 2.22° C | 45% | 1026.1 hPa | 0 mm | - | 51 W/m² | - |
| 1777730578 | 1.67° C | 45% | 1026.3 hPa | 0 mm | - | 23 W/m² | - |
| 1777730274 | 1.67° C | 51% | 1026.2 hPa | 0 mm | - | 28 W/m² | - |
| 1777729970 | 0.56° C | 51% | 1026.3 hPa | 0 mm | - | 42 W/m² | - |
| 1777729364 | 0° C | 59% | 1026.2 hPa | 0 mm | - | 21 W/m² | - |
| 1777729060 | -1.11° C | 62% | 1026.5 hPa | 0 mm | - | 21 W/m² | - |
| 1777728757 | -1.67° C | 66% | 1026.1 hPa | 0 mm | - | 20 W/m² | - |
| 1777728453 | -2.22° C | 66% | 1026.2 hPa | 0 mm | - | 20 W/m² | - |
| 1777728151 | -2.22° C | 73% | 1026.2 hPa | 0 mm | - | 19 W/m² | - |
| 1777727848 | -2.78° C | 74% | 1026.3 hPa | 0 mm | - | 19 W/m² | - |
| 1777727545 | -3.33° C | 73% | 1025.9 hPa | 0 mm | - | 18 W/m² | - |
| 1777727242 | -3.33° C | 76% | 1025.7 hPa | 0 mm | - | 18 W/m² | - |
| 1777726940 | -3.33° C | 75% | 1025.9 hPa | 0 mm | - | 17 W/m² | - |
| 1777726636 | -3.33° C | 76% | 1025.7 hPa | 0 mm | - | 16 W/m² | - |
| 1777725426 | -3.33° C | 72% | 1025.8 hPa | 0 mm | - | 13 W/m² | - |
| 1777724819 | -3.89° C | 73% | 1025.3 hPa | 0 mm | - | 10 W/m² | - |
| 1777724515 | -3.89° C | 73% | 1025.4 hPa | 0 mm | - | 9 W/m² | - |
| 1777724214 | -3.89° C | 73% | 1025.5 hPa | 0 mm | - | 7 W/m² | - |
| 1777723911 | -3.89° C | 74% | 1025.4 hPa | 0 mm | - | 5 W/m² | - |
| 1777723304 | -3.89° C | 73% | 1025.5 hPa | 0 mm | - | 2 W/m² | - |
| 1777722697 | -3.89° C | 74% | 1025.3 hPa | 0 mm | - | 0 W/m² | - |
| 1777722393 | -3.89° C | 74% | 1025.5 hPa | 0 mm | - | 0 W/m² | - |
* Rain latest hour (hover to see other rain measurements)
** Current wind speed in m/s (hover to see current wind gust speed)